Погода в Оленевке

Россия / Республика Крым     45°22′39″N   32°31′54″E
темп.,
°C
ветер,
м/с
пор.,
м/с
влажн.,
%
обл.,
%
осадки,
мм/ч
давл.,
гПа
погр.,
м
13 июня, вс
вс1300:00+20з45785 0.0 101394
03:00+20юз34787 0.0 101370
06:00+20ююз457993 0.0 1012154
09:00+20ююз677937 0.1 1011186
12:00+21ююз67774 0.2 1011210
15:00+21ююз68765 0.6 1011262
18:00+21ююз79805 0.0 1009363
21:00+20ююз688026 1.4 1010262
14 июня, пн
пн1400:00+20ю7980100 0.4 1009376
03:00+20ю81080100 1.3 1008658
06:00+19ю101383100 0.8 10071007
09:00+19ю91083100 1.1 1008650
12:00+18з458498 2.3 1010530
15:00+18зсз6578100 2.3 1011759
18:00+18сз65757 0.0 1011584
21:00+18сз667535 0.0 1012630
15 июня, вт
вт1500:00+18ссз6675100 0.0 1012502
03:00+18ссз6678100 0.0 1011484
06:00+18с6680100 0.0 1011467
09:00+18с5581100 0.1 1011454
12:00+19ссз6784100 1.0 1010322
15:00+19всв91189100 5.3 1008530
18:00+18всв81092100 3.3 1008585
21:00+19всв5586100 6.4 1007445
16 июня, ср
ср1600:00+19ююв2383100 0.1 1008280
03:00+19ю338292 0.1 1008340
06:00+19юз3383100 3.1 1008138
09:00+18з2388100 8.0 1009150
12:00+18св3389100 5.9 1011312
15:00+19с127792 6.0 1010270
18:00+20зсз4474100 0.0 1011257
21:00+19с5683100 0.9 1011374
17 июня, чт
чт1700:00+20ссз5684100 0.5 1011339
03:00+19с7787100 4.2 1011275
06:00+19с778789 3.4 1011369
09:00+19ссв668672 4.2 1011449
12:00+20с448284 0.2 1012537
15:00+21с2278100 0.3 1013312
18:00+21вюв1174100 0.0 1013173
21:00+21юв4481100 0.0 1014255